Torna al catalogo

SATGUS

AttivoScienzaSSO
NORAD 62713·PAYLOAD·🇺🇸 United States

Lanciato Jan 14, 2025 da Vandenberg Space Force Base

Loading…

Prossimi Passaggi (prossime 24 ore)

TLE

AggiornatoSource: Space-Track

Epoca: Sep 14, 2026, 05:12 UTC

1 62713U 25009DJ  26257.21706012  .00004739  00000-0  36395-3 0  9998
2 62713  97.6904 337.7669 0004923 144.5879 215.5674 15.02227788 90925

Traccia SATGUS in tempo reale con AllMySat

Download on the App Store